EW6651 Weather Reports


time (UTC)temp
C
wind
direction
speed
KPH
gust
KPH
rain 1hr
cm
rain 24hr
cm
rain mn
cm
humidity
%
barometer
mb
20260903064517 16 313 0.0 6.4 0.00 0.00 0.00 93 1016.1
20260903063028 16 172 1.6 6.4 0.00 0.00 0.00 92 1016.5
20260903061517 16 219 1.6 8.0 0.00 0.00 0.00 93 1016.9
20260903060009 16 135 1.6 6.4 0.00 0.00 0.00 93 1017.6
20260903054510 16 169 0.0 3.2 0.00 0.00 0.00 94 1017.8
20260903053008 16 38 0.0 1.6 0.00 0.00 0.00 94 1018.0
20260903051508 16 139 0.0 3.2 0.00 0.00 0.00 94 1017.9
20260903050007 16 70 0.0 3.2 0.00 0.00 0.00 94 1017.7
20260903044507 16 229 0.0 4.8 0.00 0.00 0.00 94 1017.6
20260903043005 16 108 1.6 4.8 0.00 0.00 0.00 94 1017.9
20260903041505 16 207 0.0 1.6 0.00 0.00 0.00 93 1018.1
20260903040002 16 230 0.0 3.2 0.00 0.00 0.00 93 1018.3
20260903034502 16 242 0.0 1.6 0.00 0.00 0.00 93 1018.2
20260903033059 16 160 0.0 3.2 0.00 0.00 0.00 93 1018.4
20260903031555 16 124 0.0 1.6 0.00 0.00 0.00 93 1018.8
20260903030055 16 147 0.0 0.0 0.00 0.00 0.00 93 1019.0
20260903024555 16 174 0.0 0.0 0.00 0.00 0.00 92 1018.9
20260903023054 16 233 0.0 3.2 0.00 0.00 0.00 92 1019.0
20260903021554 16 221 0.0 3.2 0.00 0.00 0.00 92 1019.2
20260903020054 16 226 0.0 3.2 0.00 0.00 0.00 92 1019.3
20260903014554 16 79 0.0 6.4 0.00 0.00 0.00 92 1019.3
20260903013053 16 207 0.0 4.8 0.00 0.00 0.00 93 1019.6
20260903011603 16 111 0.0 8.0 0.00 0.00 0.00 94 1019.4
20260903010051 16 147 0.0 9.7 0.00 0.00 0.00 95 1018.9
20260903004551 17 105 0.0 8.0 0.00 0.00 0.00 94 1018.8
20260903003049 17 301 0.0 6.4 0.00 0.00 0.00 93 1019.1
20260903001548 17 204 0.0 3.2 0.00 0.00 0.00 92 1019.1
20260903000047 17 166 0.0 3.2 0.00 0.00 0.00 91 1019.2
20260902234547 17 97 0.0 4.8 0.00 0.00 0.00 90 1019.4
20260902233054 17 208 0.0 3.2 0.00 0.00 0.00 89 1019.8
20260902231554 18 165 0.0 3.2 0.00 0.00 0.00 89 1020.2
20260902230043 18 124 0.0 3.2 0.00 0.00 0.00 88 1020.3
20260902224552 18 186 0.0 6.4 0.00 0.08 0.00 86 1020.2
20260902223043 18 252 0.0 4.8 0.00 0.08 0.00 86 1020.2
20260902221548 18 252 0.0 3.2 0.00 0.08 0.00 85 1020.5
20260902220041 19 204 0.0 12.9 0.00 0.08 0.00 83 1020.5
20260902214541 19 281 0.0 4.8 0.00 0.08 0.00 83 1020.5
20260902213051 19 151 1.6 11.3 0.00 0.08 0.00 82 1020.1
20260902211547 20 112 0.0 3.2 0.00 0.08 0.00 81 1020.3
20260902210039 20 210 0.0 8.0 0.00 0.08 0.00 80 1020.4
20260902204540 20 129 0.0 8.0 0.00 0.08 0.00 79 1020.2
20260902203038 20 160 1.6 9.7 0.00 0.08 0.00 80 1020.4
20260902201539 21 262 1.6 11.3 0.00 0.08 0.00 79 1020.5
20260902200036 21 263 1.6 8.0 0.00 0.08 0.00 79 1020.8
20260902194540 20 116 0.0 8.0 0.00 0.08 0.00 81 1020.9
20260902193038 20 267 0.0 6.4 0.00 0.08 0.00 81 1021.1
20260902191537 21 19 0.0 11.3 0.00 0.08 0.00 81 1021.1
20260902190032 21 214 1.6 4.8 0.00 0.08 0.00 82 1021.3
20260902184531 20 171 0.0 6.4 0.00 0.10 0.00 83 1021.4
20260902183031 20 246 0.0 6.4 0.00 0.10 0.00 83 1021.2
20260902181530 20 235 0.0 8.0 0.00 0.10 0.00 84 1021.2
20260902180031 20 58 1.6 9.7 0.00 0.10 0.00 82 1021.3
20260902174529 20 231 1.6 6.4 0.00 0.10 0.00 81 1021.3
20260902173029 20 267 0.0 11.3 0.00 0.10 0.00 83 1021.3
20260902171527 20 257 1.6 9.7 0.00 0.10 0.00 82 1021.2
20260902170025 20 213 0.0 4.8 0.00 0.10 0.00 82 1021.4
20260902164526 20 207 1.6 8.0 0.00 0.18 0.00 83 1021.6
20260902163023 20 166 0.0 9.7 0.00 0.18 0.00 83 1021.8
20260902161522 20 94 0.0 4.8 0.00 0.18 0.00 85 1021.8
20260902160020 19 268 0.0 4.8 0.00 0.18 0.00 85 1022.1
20260902154527 19 131 0.0 6.4 0.00 0.18 0.00 87 1022.4
20260902153017 19 250 0.0 8.0 0.00 0.18 0.00 86 1022.5
20260902151515 19 108 0.0 4.8 0.00 0.18 0.00 88 1022.4
20260902150013 18 166 1.6 8.0 0.00 0.18 0.00 89 1022.4
20260902144525 18 74 0.0 4.8 0.00 0.20 0.00 91 1022.7
20260902143013 18 100 1.6 6.4 0.00 0.20 0.00 92 1022.6
20260902141509 17 98 0.0 4.8 0.00 0.20 0.00 94 1022.3
20260902134601 17 143 0.0 4.8 0.00 0.38 0.00 95 1021.8
20260902133057 17 129 0.0 4.8 0.00 0.38 0.00 97 1021.7
20260902131554 16 141 0.0 6.4 0.00 0.38 0.00 98 1021.7
20260902130058 16 134 0.0 1.6 0.00 0.38 0.00 99 1022.0
20260902124550 16 232 0.0 3.2 0.00 0.97 0.00 99 1022.0
20260902123056 16 266 0.0 3.2 0.00 0.97 0.00 99 1021.9
20260902121551 15 113 0.0 3.2 0.00 0.97 0.00 99 1021.9
20260902120045 15 158 0.0 1.6 0.00 0.97 0.00 99 1021.7
20260902114545 15 160 0.0 0.0 0.00 1.24 0.00 100 1022.1
20260902113047 15 160 0.0 0.0 0.00 1.24 0.00 99 1022.1
20260902111548 15 157 0.0 0.0 0.00 1.24 0.00 99 1022.2
20260902110046 15 157 0.0 0.0 0.00 1.24 0.00 99 1021.9
20260902104550 15 157 0.0 0.0 0.00 1.24 0.00 99 1021.8
20260902103040 15 157 0.0 0.0 0.00 1.24 0.00 99 1021.4
20260902101534 15 157 0.0 0.0 0.00 1.24 0.00 99 1021.3
20260902100033 15 157 0.0 0.0 0.00 1.24 0.00 99 1021.3
20260902094533 15 157 0.0 0.0 0.00 1.24 0.00 99 1021.2
20260902093032 15 157 0.0 0.0 0.00 1.24 0.00 99 1021.0
20260902091531 15 151 0.0 0.0 0.00 1.24 0.00 99 1020.9
20260902090031 15 151 0.0 0.0 0.00 1.24 0.00 99 1020.9
20260902084530 15 236 0.0 0.0 0.00 1.24 0.00 99 1020.9
20260902083030 15 236 0.0 0.0 0.00 1.24 0.00 99 1020.8
20260902081529 15 236 0.0 0.0 0.00 1.24 0.00 99 1020.8
20260902080029 15 236 0.0 0.0 0.00 1.24 0.00 99 1020.9
20260902074528 15 236 0.0 0.0 0.00 1.24 0.00 99 1021.0
20260902073029 15 236 0.0 0.0 0.00 1.24 0.00 99 1021.1
20260902071527 15 236 0.0 0.0 0.00 1.24 0.00 99 1021.2
20260902070025 15 236 0.0 0.0 0.00 1.24 0.00 99 1021.0